Temp
-11 -10 -10 -11 -11 -11 -11 -11 -10 -11 -12 -11 -11 -9 -9 -9 -10 -10 -10 -10 -10 -10 -10 -11 -11 -11 -10 -10 -10 -11 -10 -10 -10 -10 -10 -9 -10 -10 -10 -10 -10 -10 -11 -11
-11 -10 -11 -12 -11 -11 -11 -11 -11 -11 -12 -11 -10 -8 -9 -9 -9 -10 -10 -10 -10 -10 -10 -11 -11 -11 -11 -10 -10 -10 -10 -10 -10 -9 -10 -10 -10 -10 -10 -10 -11 -11 -11 -11
-11 -10 -11 -11 -11 -12 -12 -12 -12 -11 -11 -10 -9 -7 -9 -9 -9 -10 -10 -10 -10 -10 -10 -10 -11 -11 -11 -11 -11 -10 -10 -10 -10 -10 -10 -10 -10 -10 -11 -11 -11 -11 -11 -11
-10 -11 -11 -11 -11 -13 -11 -13 -12 -12 -11 -10 -10 -6 -7 -8 -9 -9 -9 -10 -10 -10 -11 -11 -11 -11 -11 -11 -10 -11 -10 -10 -10 -10 -10 -10 -10 -10 -10 -10 -11 -11 -11 -11
-12 -12 -12 -12 -12 -13 -12 -13 -13 -13 -12 -11 -10 -9 -7 -9 -9 -9 -9 -9 -10 -11 -11 -11 -11 -11 -11 -11 -11 -10 -10 -10 -10 -10 -10 -11 -11 -11 -11 -11 -11 -11 -12 -12
-12 -12 -12 -12 -13 -13 -13 -12 -13 -13 -13 -11 -10 -12 -4 -8 -8 -9 -9 -9 -9 -9 -10 -10 -11 -11 -11 -11 -11 -11 -11 -11 -11 -11 -11 -11 -11 -12 -12 -12 -12 -12 -12 -12
-12 -12 -12 -12 -13 -13 -14 -14 -14 -13 -13 -11 -11 -12 -7 -9 -9 -9 -10 -10 -10 -10 -10 -11 -11 -11 -11 -11 -11 -11 -12 -11 -11 -11 -11 -11 -11 -12 -12 -12 -12 -12 -12 -12
-13 -12 -13 -13 -14 -14 -14 -15 -15 -15 -14 -13 -12 -11 -9 -11 -11 -11 -11 -10 -10 -12 -12 -12 -13 -13 -12 -12 -12 -12 -12 -12 -12 -13 -13 -12 -13 -13 -13 -13 -13 -13 -13 -13
-15 -13 -14 -15 -14 -14 -14 -14 -16 -16 -16 -16 -12 -12 -11 -11 -11 -11 -11 -11 -12 -12 -13 -14 -14 -15 -14 -14 -13 -12 -12 -12 -13 -13 -14 -14 -14 -13 -13 -13 -13 -13 -13 -13
-16 -16 -15 -15 -16 -14 -16 -16 -16 -17 -17 -17 -16 -15 -13 -11 -12 -13 -12 -12 -12 -14 -15 -16 -16 -15 -15 -15 -15 -14 -14 -14 -14 -15 -14 -13 -14 -14 -13 -13 -13 -13 -14 -13
-17 -17 -15 -16 -15 -16 -16 -16 -16 -16 -17 -17 -17 -17 -15 -13 -12 -12 -13 -14 -15 -16 -16 -17 -17 -16 -16 -16 -16 -17 -16 -16 -15 -15 -15 -14 -14 -14 -14 -14 -15 -14 -14 -14
-17 -18 -19 -16 -16 -16 -17 -16 -16 -18 -17 -18 -19 -18 -15 -15 -15 -15 -14 -15 -16 -17 -18 -17 -17 -17 -17 -17 -17 -16 -16 -15 -15 -15 -15 -15 -15 -16 -16 -15 -15 -15 -15 -15
-18 -19 -19 -19 -17 -16 -18 -18 -18 -18 -19 -19 -19 -18 -17 -17 -16 -15 -16 -16 -17 -17 -18 -18 -18 -17 -16 -16 -17 -16 -15 -15 -15 -15 -15 -15 -15 -15 -16 -15 -15 -15 -16 -16
-19 -19 -19 -19 -19 -19 -19 -19 -18 -20 -20 -19 -19 -19 -19 -19 -19 -18 -18 -17 -16 -16 -16 -18 -17 -16 -17 -16 -16 -16 -16 -16 -16 -16 -16 -16 -16 -16 -17 -16 -15 -15 -15 -16
-21 -20 -21 -20 -20 -20 -21 -20 -20 -20 -20 -21 -20 -21 -21 -21 -21 -20 -19 -18 -18 -18 -17 -17 -17 -18 -17 -17 -17 -16 -16 -17 -17 -17 -16 -15 -16 -16 -16 -16 -16 -16 -17 -18
-22 -22 -22 -22 -21 -22 -22 -21 -21 -22 -21 -20 -20 -20 -21 -21 -21 -21 -20 -19 -18 -18 -18 -17 -17 -17 -17 -17 -18 -17 -17 -16 -17 -16 -18 -17 -16 -16 -16 -17 -16 -17 -18 -18
-22 -22 -22 -22 -22 -22 -22 -21 -22 -22 -22 -21 -21 -21 -21 -21 -21 -21 -20 -21 -20 -20 -20 -18 -17 -17 -17 -18 -19 -19 -18 -17 -18 -18 -18 -17 -17 -16 -17 -17 -17 -17 -18 -18
-23 -24 -24 -24 -23 -24 -22 -22 -23 -23 -23 -22 -22 -22 -22 -22 -21 -21 -21 -21 -21 -21 -20 -20 -19 -19 -19 -18 -18 -19 -19 -19 -19 -19 -18 -18 -17 -17 -18 -18 -18 -18 -18 -18
-25 -25 -25 -25 -25 -25 -24 -24 -24 -23 -24 -24 -24 -23 -23 -24 -24 -23 -22 -21 -21 -22 -21 -22 -21 -21 -21 -21 -20 -20 -20 -21 -20 -20 -20 -19 -19 -19 -19 -18 -19 -18 -18 -18
-26 -26 -26 -26 -26 -26 -26 -26 -26 -26 -26 -26 -26 -26 -25 -24 -23 -23 -23 -24 -23 -23 -22 -22 -22 -21 -22 -21 -21 -21 -21 -21 -21 -21 -21 -21 -21 -20 -20 -19 -20 -19 -19 -20
-26 -27 -27 -27 -27 -27 -27 -27 -27 -27 -27 -27 -27 -26 -26 -26 -26 -25 -25 -25 -24 -25 -24 -23 -22 -22 -22 -22 -22 -23 -22 -21 -21 -22 -22 -22 -21 -21 -21 -21 -21 -21 -20 -20
-28 -28 -28 -28 -28 -28 -28 -28 -28 -28 -27 -28 -28 -28 -27 -27 -27 -27 -26 -26 -25 -25 -24 -24 -23 -24 -23 -23 -23 -23 -22 -23 -22 -22 -22 -22 -22 -21 -21 -21 -22 -21 -21 -22
-28 -28 -28 -28 -28 -28 -28 -29 -29 -29 -28 -28 -28 -28 -29 -28 -28 -27 -27 -27 -26 -26 -25 -25 -25 -24 -25 -26 -26 -25 -23 -23 -22 -22 -22 -22 -23 -22 -22 -22 -21 -22 -22 -22
-28 -29 -29 -29 -29 -29 -30 -30 -30 -30 -30 -30 -30 -30 -30 -30 -29 -29 -28 -28 -27 -27 -27 -25 -25 -25 -26 -26 -26 -25 -24 -23 -23 -23 -22 -23 -23 -23 -23 -22 -23 -22 -22 -22
-29 -30 -30 -31 -29 -32 -31 -32 -32 -32 -33 -32 -32 -32 -32 -31 -31 -31 -30 -29 -29 -28 -27 -27 -26 -25 -25 -26 -26 -26 -25 -24 -24 -24 -23 -23 -24 -24 -23 -22 -22 -22 -23 -23
-30 -31 -32 -31 -32 -35 -34 -32 -34 -34 -34 -34 -34 -33 -34 -34 -33 -33 -33 -32 -32 -31 -30 -29 -28 -27 -26 -26 -25 -26 -25 -24 -25 -24 -24 -24 -25 -25 -23 -23 -22 -22 -22 -23
Height
5803 5800 5801 5807 5800 5797 5791 5789 5787 5791 5793 5780 5776 5769 5774 5780 5782 5784 5783 5781 5779 5776 5778 5776 5774 5770 5768 5768 5768 5767 5766 5767 5766 5766 5766 5765 5765 5765 5765 5765 5764 5766 5766 5766
5794 5787 5798 5792 5789 5786 5784 5781 5778 5778 5781 5772 5766 5759 5765 5770 5771 5773 5772 5769 5769 5769 5768 5767 5764 5762 5761 5760 5760 5759 5757 5757 5757 5756 5756 5756 5756 5755 5755 5754 5756 5756 5756 5756
5781 5781 5782 5781 5779 5777 5776 5773 5772 5764 5765 5763 5758 5745 5755 5765 5764 5763 5761 5762 5759 5758 5757 5756 5753 5751 5751 5750 5749 5748 5747 5748 5747 5747 5746 5747 5747 5746 5746 5745 5744 5744 5745 5746
5769 5777 5773 5768 5765 5766 5761 5764 5759 5757 5754 5747 5750 5732 5744 5754 5758 5758 5754 5752 5752 5748 5746 5745 5743 5741 5739 5739 5737 5737 5738 5737 5736 5737 5736 5737 5736 5735 5735 5734 5733 5734 5735 5735
5762 5763 5760 5757 5760 5753 5752 5749 5750 5747 5745 5742 5736 5735 5733 5733 5742 5744 5746 5747 5743 5741 5737 5736 5732 5730 5730 5728 5726 5725 5725 5725 5725 5725 5725 5725 5725 5725 5723 5723 5723 5723 5723 5723
5750 5750 5747 5746 5744 5743 5741 5737 5734 5733 5730 5729 5731 5728 5725 5730 5722 5723 5727 5729 5730 5723 5726 5724 5722 5721 5719 5719 5718 5715 5713 5712 5713 5713 5713 5713 5713 5712 5712 5713 5713 5713 5712 5712
5735 5734 5734 5731 5729 5731 5727 5724 5718 5713 5712 5719 5721 5716 5718 5717 5719 5717 5714 5709 5706 5710 5711 5709 5709 5710 5708 5705 5705 5705 5704 5703 5701 5700 5701 5700 5701 5701 5702 5702 5701 5701 5701 5701
5714 5718 5718 5718 5716 5713 5711 5709 5705 5696 5699 5699 5703 5696 5704 5710 5710 5704 5701 5699 5696 5691 5693 5698 5692 5693 5694 5693 5690 5690 5691 5691 5691 5690 5688 5688 5689 5690 5690 5689 5688 5687 5686 5686
5695 5699 5700 5700 5697 5700 5701 5694 5695 5680 5679 5672 5682 5684 5691 5699 5696 5693 5692 5689 5684 5683 5680 5679 5676 5679 5680 5678 5679 5677 5676 5677 5678 5679 5677 5677 5677 5677 5677 5677 5675 5673 5672 5672
5676 5673 5683 5679 5682 5681 5678 5681 5673 5669 5657 5652 5653 5665 5672 5685 5683 5676 5675 5675 5676 5672 5668 5667 5666 5665 5665 5666 5665 5664 5663 5663 5666 5665 5666 5666 5664 5662 5660 5659 5660 5658 5656 5656
5657 5655 5666 5658 5663 5664 5658 5655 5657 5649 5644 5635 5633 5635 5668 5670 5666 5658 5660 5659 5657 5656 5653 5652 5649 5650 5650 5649 5648 5646 5644 5646 5650 5649 5648 5649 5649 5650 5648 5648 5645 5644 5642 5640
5645 5633 5630 5642 5648 5643 5637 5637 5637 5625 5625 5620 5614 5612 5648 5654 5652 5647 5644 5642 5640 5635 5634 5630 5628 5627 5629 5629 5627 5627 5631 5633 5631 5630 5632 5632 5631 5632 5631 5632 5630 5628 5627 5625
5629 5619 5611 5613 5626 5627 5618 5624 5618 5612 5604 5597 5594 5594 5618 5624 5631 5636 5628 5620 5610 5608 5609 5603 5599 5608 5610 5611 5614 5614 5614 5613 5612 5611 5611 5614 5614 5613 5611 5611 5612 5611 5607 5607
5610 5604 5602 5599 5601 5606 5600 5601 5605 5598 5584 5582 5577 5578 5589 5598 5603 5605 5596 5588 5592 5591 5589 5590 5586 5588 5590 5591 5596 5597 5597 5595 5591 5590 5591 5593 5596 5595 5592 5592 5593 5592 5591 5590
5591 5581 5585 5582 5578 5576 5574 5577 5582 5577 5571 5561 5562 5560 5566 5569 5565 5569 5571 5568 5567 5568 5566 5562 5564 5566 5570 5573 5574 5575 5578 5576 5574 5575 5576 5578 5576 5575 5574 5573 5574 5573 5571 5571
5571 5562 5561 5559 5565 5558 5553 5557 5563 5557 5555 5547 5543 5543 5535 5537 5540 5544 5544 5545 5544 5542 5543 5542 5541 5544 5546 5549 5552 5552 5553 5554 5552 5554 5555 5557 5558 5557 5555 5553 5556 5555 5552 5552
5552 5549 5546 5534 5547 5537 5525 5547 5541 5537 5529 5525 5520 5519 5521 5523 5525 5523 5521 5522 5523 5520 5520 5521 5521 5521 5521 5523 5528 5532 5530 5528 5526 5527 5532 5533 5532 5534 5534 5536 5533 5534 5532 5531
5534 5533 5526 5514 5522 5506 5523 5528 5520 5515 5507 5501 5498 5498 5499 5503 5503 5503 5499 5499 5499 5497 5498 5498 5499 5501 5503 5501 5500 5504 5505 5503 5500 5500 5502 5505 5507 5510 5511 5513 5512 5513 5513 5511
5512 5512 5502 5495 5494 5488 5499 5501 5497 5492 5483 5481 5477 5474 5473 5474 5480 5485 5476 5473 5478 5478 5476 5476 5477 5478 5476 5476 5478 5479 5477 5477 5474 5473 5474 5479 5482 5485 5488 5488 5488 5489 5490 5491
5493 5488 5483 5481 5471 5465 5475 5476 5474 5466 5459 5457 5453 5448 5447 5448 5449 5465 5449 5445 5448 5451 5451 5452 5455 5455 5453 5452 5451 5453 5453 5452 5450 5447 5449 5452 5457 5462 5464 5465 5467 5467 5467 5470
5475 5469 5463 5459 5448 5447 5451 5453 5450 5444 5441 5433 5424 5425 5422 5422 5420 5428 5428 5425 5421 5423 5422 5422 5425 5428 5427 5426 5426 5429 5429 5430 5430 5429 5429 5432 5435 5439 5441 5442 5445 5446 5448 5450
5446 5446 5446 5442 5435 5430 5435 5432 5429 5421 5412 5408 5404 5400 5394 5392 5392 5390 5397 5397 5396 5395 5395 5393 5397 5401 5402 5400 5399 5404 5404 5402 5405 5408 5408 5410 5411 5414 5416 5417 5419 5422 5426 5430
5423 5427 5422 5418 5410 5409 5412 5406 5403 5393 5393 5388 5378 5374 5368 5366 5365 5362 5362 5366 5367 5371 5369 5366 5367 5372 5373 5372 5374 5382 5383 5379 5382 5384 5384 5388 5392 5393 5394 5395 5396 5400 5403 5407
5412 5410 5399 5395 5399 5391 5388 5382 5379 5373 5367 5363 5358 5354 5345 5340 5339 5337 5336 5338 5335 5335 5335 5334 5333 5335 5344 5344 5350 5352 5356 5354 5357 5358 5361 5363 5367 5371 5374 5376 5379 5382 5385 5387
5399 5387 5385 5373 5379 5369 5369 5362 5357 5351 5347 5343 5338 5332 5328 5320 5317 5309 5308 5306 5303 5304 5305 5302 5302 5299 5308 5309 5317 5323 5322 5324 5327 5331 5335 5340 5342 5346 5351 5354 5358 5359 5363 5366
5376 5369 5362 5358 5360 5348 5344 5346 5338 5334 5330 5324 5319 5316 5309 5299 5293 5287 5285 5282 5276 5274 5272 5268 5267 5267 5272 5272 5281 5288 5285 5287 5292 5299 5303 5307 5316 5322 5326 5331 5333 5337 5339 5343
Wind_Speed
48 53 49 41 43 47 51 51 50 45 39 49 50 52 45 38 35 35 36 38 38 38 34 34 35 38 39 36 34 35 35 34 35 37 38 40 40 39 39 39 38 34 32 33
47 52 44 47 47 49 51 51 52 52 48 54 54 52 48 43 38 34 30 32 30 30 31 32 38 40 39 37 36 37 38 37 38 40 40 40 38 39 39 37 34 33 36 34
48 48 48 50 51 50 50 52 52 56 51 53 55 55 50 41 36 34 38 35 36 32 33 33 37 38 39 38 39 39 40 39 39 39 38 38 39 40 37 35 37 40 37 36
48 40 43 47 51 43 52 43 48 51 56 57 55 53 48 42 42 40 40 41 31 30 27 30 34 37 37 37 39 40 42 43 43 43 42 43 43 43 41 42 42 40 39 39
46 46 44 47 47 51 53 54 52 52 56 59 57 60 54 55 48 42 37 37 43 36 35 33 36 39 38 39 40 42 43 44 45 45 45 46 46 46 46 47 45 43 41 41
47 50 54 47 49 52 54 55 57 57 58 61 58 59 45 56 57 59 57 50 50 54 45 38 38 39 37 40 42 41 40 43 44 46 49 50 50 46 46 43 42 43 44 45
56 55 54 53 53 54 53 55 59 63 66 64 63 64 56 63 60 66 65 65 66 60 57 54 46 44 43 38 42 41 44 44 45 46 45 48 51 50 46 44 43 46 48 49
65 61 61 61 56 57 57 57 61 65 66 68 67 74 68 63 62 67 67 68 67 69 64 58 50 42 41 41 40 44 45 39 36 38 44 45 48 47 45 46 48 50 52 52
64 69 69 66 63 61 62 60 54 60 61 68 75 75 73 68 66 67 68 70 70 68 59 51 41 31 30 34 38 43 44 38 38 44 51 49 45 47 52 52 52 55 56 55
68 70 67 70 68 69 65 62 62 60 63 65 65 64 69 72 70 67 68 65 62 58 51 34 25 33 30 37 41 45 44 45 50 46 51 56 57 54 57 57 58 62 62 60
73 74 76 78 76 73 73 74 74 73 73 76 76 73 49 55 65 69 61 58 59 57 49 42 48 48 40 42 41 44 50 56 55 52 49 53 58 60 63 60 59 58 59 59
74 75 74 78 76 75 75 76 74 67 72 70 65 67 61 47 44 49 54 59 51 41 48 57 51 36 36 52 57 56 57 61 59 54 54 54 55 60 62 57 58 58 60 61
70 70 72 73 74 74 63 60 70 74 71 73 75 76 65 59 58 59 62 62 56 58 46 55 56 49 50 51 59 64 64 61 59 60 59 59 59 61 63 62 63 63 65 65
71 72 74 70 68 74 76 74 70 71 74 74 71 69 63 57 57 59 62 68 70 65 71 69 70 68 70 75 66 65 55 54 55 57 60 61 61 63 66 67 68 66 65 64
64 70 67 72 75 73 73 70 67 65 65 67 66 70 69 66 70 72 70 77 81 83 85 88 90 84 80 80 78 70 71 61 59 64 65 62 66 65 67 68 63 63 62 62
59 66 67 69 66 65 72 75 76 64 60 70 73 77 71 71 65 61 65 75 79 79 78 89 92 92 89 77 73 74 74 79 80 82 66 61 67 70 70 62 68 62 59 55
67 68 69 76 73 79 84 76 69 67 66 67 66 68 66 62 65 66 71 67 71 79 78 79 85 89 86 82 72 69 76 80 82 81 77 77 74 80 75 73 70 68 62 64
67 66 70 77 75 83 78 73 74 76 82 85 88 90 79 70 56 60 64 68 69 68 73 78 77 78 82 84 80 81 80 86 88 86 83 83 85 80 76 75 74 75 74 70
68 68 74 77 78 82 79 76 77 78 81 82 85 89 93 94 88 76 85 81 76 75 72 74 78 81 81 81 80 76 84 83 88 92 90 87 87 85 84 82 75 80 81 75
69 71 74 76 80 83 80 77 76 79 81 82 82 83 84 87 88 91 92 93 91 94 91 91 92 91 90 87 69 63 65 71 80 87 89 88 82 83 78 74 69 77 69 69
71 72 72 72 76 77 74 72 73 77 83 85 90 92 94 95 96 91 94 93 88 84 84 87 83 80 80 75 70 74 74 75 79 74 76 60 57 59 61 64 68 71 74 75
68 68 67 68 70 73 71 73 74 78 82 84 86 88 92 95 96 97 95 90 82 80 78 79 77 69 81 76 73 72 71 81 86 77 79 66 68 65 66 68 70 74 72 66
66 63 66 68 72 72 68 68 69 71 75 78 83 85 87 89 90 93 95 95 98 101 91 84 90 86 77 77 76 71 76 74 84 81 79 71 66 70 70 69 72 61 67 67
61 62 68 69 67 67 67 65 66 69 72 74 77 79 82 85 87 89 91 92 94 94 96 109 117 110 102 96 96 89 89 97 85 82 76 70 63 69 75 78 73 73 72 68
58 60 58 64 64 60 62 60 62 63 64 67 68 71 75 79 81 83 86 87 90 91 93 96 103 111 106 102 97 88 93 85 77 84 85 78 74 69 76 79 85 86 76 73
54 57 58 62 57 47 58 60 59 60 62 64 66 67 69 72 75 76 77 78 80 84 87 92 96 100 103 104 101 96 97 107 84 85 80 75 80 80 79 85 87 85 81 77
Wind_Direction
272 274 277 283 277 278 280 283 286 290 292 284 279 280 285 285 282 286 287 284 279 278 275 266 268 267 269 270 265 262 263 264 268 269 264 264 269 269 269 267 264 262 262 263
272 274 279 273 272 273 277 282 284 287 288 281 283 282 284 290 294 297 288 288 281 279 274 268 267 266 269 267 262 260 260 263 265 268 269 267 266 269 267 265 266 262 261 266
269 273 273 274 273 273 275 277 282 279 279 278 285 284 287 289 293 290 291 286 291 284 275 273 271 268 268 266 262 259 260 262 266 267 269 266 265 267 265 260 255 257 263 268
270 273 276 277 274 276 270 272 270 275 277 281 281 283 286 292 293 291 289 292 279 275 279 275 272 271 266 261 260 260 259 261 265 265 264 262 262 264 265 263 262 263 266 270
276 276 273 271 275 271 273 271 271 270 272 274 276 284 298 302 300 294 291 289 289 272 271 270 274 272 269 266 262 262 263 264 265 265 261 259 260 262 263 264 264 266 268 270
279 273 273 278 276 276 275 273 272 269 267 267 274 279 279 290 294 299 296 290 285 283 280 272 268 268 270 271 271 265 261 259 261 261 263 262 262 266 265 265 266 266 268 272
281 275 274 279 278 280 277 274 273 271 268 272 275 274 277 279 286 290 290 289 289 286 284 287 283 281 274 273 275 273 268 267 265 266 267 264 264 265 264 264 267 271 272 274
281 277 274 279 279 277 276 274 275 276 280 278 273 270 273 278 280 283 282 281 286 289 291 288 288 285 278 274 263 264 267 265 271 270 265 269 266 264 265 267 268 268 269 272
278 274 276 278 277 277 276 272 278 272 270 271 272 275 277 280 278 277 278 278 280 285 293 292 287 275 281 266 259 253 247 251 274 269 265 264 259 263 267 268 269 271 273 275
276 274 271 275 278 277 276 275 272 271 275 273 275 269 277 286 282 278 277 277 282 282 280 279 262 264 271 258 246 236 241 253 266 268 266 265 264 263 267 269 272 274 277 278
279 280 278 277 277 281 278 277 278 277 277 281 284 279 277 274 272 276 272 270 273 276 283 261 261 266 262 249 243 245 250 258 263 268 258 255 258 259 265 269 274 273 272 273
278 283 280 276 276 278 277 279 281 283 286 284 282 273 279 274 268 264 272 278 274 265 272 264 263 254 249 246 249 257 261 259 265 264 259 259 262 260 268 270 275 276 273 272
275 272 277 278 278 277 274 274 277 280 282 280 281 283 289 285 271 261 274 272 258 252 260 241 252 256 248 254 257 257 258 260 264 264 258 256 260 264 266 270 272 272 272 272
271 272 272 270 265 272 271 273 274 274 275 280 276 281 278 276 261 266 256 252 257 261 257 257 256 259 264 271 276 269 268 265 257 259 261 259 261 262 262 267 269 268 269 269
272 273 272 271 273 272 272 272 269 271 278 275 280 276 276 270 263 256 252 251 252 256 257 257 261 265 269 272 273 269 266 265 261 272 276 274 267 265 264 265 264 268 263 258
273 271 276 272 269 271 272 273 279 271 263 266 264 268 267 263 263 264 262 257 254 261 261 256 258 267 270 268 270 274 272 270 264 268 261 261 263 271 271 268 275 264 254 255
272 273 273 265 268 272 271 276 274 265 264 267 270 263 269 273 268 266 262 258 263 266 263 258 258 261 266 268 267 264 269 269 258 257 257 256 257 267 270 271 266 263 251 257
272 273 273 274 272 270 275 275 273 271 270 271 271 267 273 272 271 266 261 262 260 256 258 260 258 258 260 262 266 273 270 260 259 256 253 252 257 262 260 259 262 263 259 260
270 271 273 273 274 277 279 279 278 274 274 273 272 270 270 271 271 270 264 261 260 258 251 255 259 260 262 264 271 267 265 266 262 260 258 257 256 257 257 259 259 260 262 267
271 271 270 272 273 274 278 277 277 277 274 274 273 273 272 271 270 264 266 273 268 264 262 263 269 269 268 268 263 267 266 267 267 268 266 267 267 263 264 263 265 262 263 270
270 270 269 272 274 275 278 278 277 274 274 272 273 272 270 269 269 263 262 271 269 270 271 273 270 265 257 255 261 270 272 270 269 263 261 255 255 258 259 260 269 267 266 265
273 273 274 273 272 274 276 275 275 273 272 274 272 271 270 270 270 271 268 262 264 260 261 257 253 260 260 257 267 270 274 271 267 260 255 255 259 260 266 274 273 270 263 268
274 276 277 276 279 280 279 279 277 275 274 273 273 272 273 272 271 270 269 266 264 259 259 248 254 259 256 266 268 267 261 262 259 255 253 250 258 263 268 272 275 265 266 269
274 275 275 277 277 280 282 282 280 278 277 276 276 276 276 276 275 274 273 272 270 268 265 260 259 267 268 267 265 265 264 259 260 252 251 255 260 256 255 258 257 258 260 258
279 278 281 277 282 285 281 281 281 280 279 278 278 278 278 279 279 280 278 277 275 272 269 268 266 268 267 265 265 259 257 249 252 253 251 257 264 263 262 256 255 255 252 260
282 282 281 284 285 289 284 285 285 286 286 286 285 283 282 283 282 281 281 282 282 279 276 273 269 266 264 265 263 258 255 249 245 243 243 252 260 261 259 257 254 247 250 251